SCP
1 1 1 1 0 0 0 0 0 0 0 0 0 0 0 0 0 0 0 0 0 0 0 0 0 0 0 0 0 0 0 0 0 0 0 0 0 0
0 0 0 0 0 0 0 0 0 0 0 0 0 0 0 0 0 0 0 0 0 0 0 0 0 0 0 0 0 0 0 0 0 0 0 0 0 0
0 0 0 0 0 0 0 0 0 0 0 0 0 0 0 0 0 0 0 0 0 0 0 0 0 0 0 0 0 0 0 0 -0 0 0 -0 0 0
0 0 0 0 0 0 0 0 0 0 0 0 0 0 0 0 0 0 0 0 0 0 0 0 0 0 0 0 0 0 0 0 -0 0 0 0 0 0
0 0 0 0 0 0 0 0 0 0 0 0 0 0 0 0 0 0 0 0 0 0 0 0 0 0 0 0 0 0 0 0 0 0 0 0 0 0
0 0 0 0 0 0 0 0 0 0 0 0 0 0 0 0 0 0 0 0 0 0 0 0 0 0 0 0 0 0 0 0 0 0 0 0 0 0
0 0 0 0 0 0 0 0 0 0 0 0 0 0 0 0 0 0 0 0 0 0 0 0 0 0 0 0 0 0 0 0 0 0 0 0 0 0
0 0 0 0 0 0 0 0 0 0 0 0 0 0 0 0 0 0 0 0 0 0 0 0 0 0 0 0 0 0 0 0 0 0 0 0 0 0
0 0 0 0 0 0 0 0 0 0 0 0 0 0 0 0 0 0 0 0 0 0 0 0 0 0 0 0 0 0 0 0 0 0 0 0 0 0
0 0 0 0 0 0 0 0 0 0 0 0 0 0 0 0 0 0 0 0 0 0 0 0 0 0 0 0 0 0 0 0 0 0 0 0 0 0
0 0 0 0 0 0 0 0 0 0 0 0 0 0 0 0 0 0 0 0 0 0 0 0 0 0 0 0 0 0 0 0 0 0 0 0 0 0
0 0 0 0 0 0 -0 -0 -0 0 0 0 0 0 0 0 0 0 0 0 0 0 0 0 0 0 0 0 0 0 0 0 0 0 0 0 0 0
-0 0 0 0 0 0 0 0 0 -0 0 0 0 0 0 0 0 0 0 0 0 0 0 0 0 0 0 0 0 0 0 0 0 0 0 0 0 0
-0 -0 0 0 0 0 0 0 0 0 0 0 -0 0 0 0 0 0 0 0 0 0 0 0 0 0 0 0 0 0 0 0 0 0 0 0 0 0
-0 0 0 0 0 0 0 0 0 0 0 0 0 0 0 0 0 0 0 0 0 0 0 0 0 0 0 0 0 0 0 0 0 0 0 0 0 0
0 0 0 0 0 0 0 0 0 0 0 0 0 0 0 0 0 0 0 0 0 0 0 0 0 0 0 0 0 0 0 0 0 0 0 0 0 0
0 0 0 0 0 0 0 0 0 0 0 0 0 0 0 0 0 0 0 0 0 0 0 0 0 0 0 0 0 0 0 0 0 0 0 0 0 0
0 0 0 0 0 0 0 0 0 0 0 0 0 0 0 0 0 0 0 0 0 0 0 0 0 0 0 0 0 0 0 0 0 0 0 0 0 0
0 0 0 0 0 0 0 0 0 0 0 0 0 0 0 0 0 0 0 0 0 0 0 0 0 0 0 0 0 0 0 0 0 0 0 0 0 0
0 0 0 0 0 0 0 0 0 0 0 0 0 0 0 0 0 0 0 0 0 0 0 0 0 0 0 0 0 0 0 0 0 0 0 0 0 0
0 0 0 0 0 0 0 0 0 0 0 0 0 0 0 0 0 0 0 0 0 0 0 0 0 0 0 0 0 0 0 0 0 0 0 0 0 0
0 0 0 0 0 0 0 0 0 0 0 0 0 0 0 0 0 0 0 0 0 0 0 0 0 0 0 0 0 0 0 0 0 0 0 0 0 0
0 0 0 0 0 0 0 0 0 0 0 0 0 0 0 0 0 0 0 0 0 0 0 0 0 0 0 0 0 0 0 0 0 0 0 0 0 0
Wind_Speed_500mb
81 88 77 53 53 54 60 66 69 56 67 67 66 58 59 58 60 69 73 69 67 59 58 60 65 69 74 76 82 91 91 96 88 88 81 75 73 78
36 35 84 67 48 51 52 53 62 72 73 64 68 70 68 67 55 64 67 75 68 67 62 59 58 64 73 80 81 93 96 112 93 87 86 79 75 75
21 20 13 28 27 27 30 33 46 59 66 68 57 80 76 75 62 70 69 71 73 74 70 65 65 63 70 76 81 85 93 112 95 93 89 85 81 74
27 25 10 9 9 20 35 44 45 37 42 37 55 67 78 77 62 71 84 85 78 80 78 75 69 66 68 71 77 83 86 96 97 100 97 89 88 81
32 23 21 16 16 19 23 32 37 43 44 46 39 38 55 59 64 66 76 81 79 78 79 81 76 76 74 75 77 84 90 90 100 107 103 98 92 89
42 36 31 27 22 20 21 24 25 32 43 50 53 49 52 56 74 64 82 73 85 83 82 84 85 81 82 86 82 84 90 93 109 106 106 103 95 95
47 47 46 40 34 30 27 28 31 32 33 37 37 31 36 49 32 34 69 76 93 73 84 96 92 85 89 91 91 92 92 97 111 119 121 108 104 99
53 48 44 41 39 38 33 33 36 41 37 38 41 40 40 44 52 54 49 43 55 71 85 97 92 91 89 94 91 96 94 99 105 107 123 120 114 110
54 54 51 48 44 41 37 33 33 36 38 37 37 38 44 45 52 55 55 61 67 56 69 86 89 94 92 86 89 92 94 94 96 107 112 125 124 118
60 56 54 54 56 52 47 42 38 38 39 40 40 41 40 46 49 53 56 65 74 73 74 82 92 111 102 96 92 92 90 92 96 95 101 113 125 121
54 55 56 56 55 55 57 56 52 45 41 39 35 34 36 38 44 47 50 53 60 65 50 65 85 105 116 104 91 87 83 79 78 82 88 114 119 115
51 52 55 59 59 61 60 59 60 60 58 53 41 36 38 37 38 40 44 52 50 50 17 37 70 66 97 105 93 90 86 83 79 74 82 98 110 119
52 55 55 56 57 57 56 57 57 58 55 53 52 52 50 50 47 40 41 40 51 56 44 51 57 54 68 46 69 91 92 87 87 87 93 99 106 106
49 50 51 53 52 50 47 45 45 47 51 55 57 57 58 59 60 54 44 41 42 51 55 46 59 58 57 73 68 64 84 91 95 98 101 101 104 109
48 47 46 45 42 39 40 40 42 45 47 49 55 56 56 55 55 55 50 44 38 36 46 49 52 56 59 70 67 76 63 88 95 98 98 100 106 111
43 43 42 41 43 43 42 44 41 40 44 45 46 50 52 54 56 56 55 54 51 41 35 40 41 45 49 54 61 68 74 59 66 85 91 91 87 87
51 48 48 48 46 45 44 44 47 47 48 48 47 47 50 52 55 56 56 54 48 52 52 43 36 36 36 40 44 49 54 60 69 68 75 72 70 68
51 53 56 58 58 58 57 54 52 49 45 42 43 44 45 48 51 52 52 51 48 47 48 48 48 43 34 28 22 28 35 42 47 51 53 56 55 51
51 52 53 55 56 56 54 51 52 49 45 40 39 44 44 43 43 48 50 52 49 42 40 43 42 39 34 25 10 10 16 25 32 36 42 49 48 39
58 59 56 54 54 53 52 49 50 50 47 41 35 36 38 40 40 45 47 48 46 43 41 40 41 30 23 18 6 12 5 18 29 38 40 40 38 36
57 59 60 56 55 51 51 48 47 47 46 42 30 33 35 39 38 39 45 45 41 40 40 35 36 27 6 9 19 20 19 15 24 35 39 47 52 46
52 54 58 56 58 54 52 50 46 46 44 41 32 30 33 35 37 40 46 49 44 38 32 28 30 18 11 8 20 26 26 25 29 38 41 43 48 34
51 56 57 54 61 54 56 54 47 45 44 39 33 30 33 34 34 35 40 44 37 37 25 22 23 12 9 13 17 21 24 26 26 26 26 24 15 22
Wind_Direction_500mb
246 240 233 235 245 250 252 251 251 257 266 264 255 267 257 258 260 265 260 259 251 253 253 249 249 249 248 247 245 243 243 232 226 229 230 233 239 236
232 226 212 214 227 246 262 268 265 261 255 260 263 277 267 262 264 268 263 258 253 252 251 253 253 255 252 250 246 244 244 240 224 227 230 231 236 237
320 5 62 171 202 249 248 254 261 270 263 253 263 268 257 258 263 276 271 259 261 254 254 254 256 264 257 251 248 245 244 244 217 223 228 229 232 234
198 217 314 344 310 266 269 265 275 279 278 282 278 271 258 271 260 281 281 264 262 263 257 252 259 265 258 252 252 250 246 249 222 223 225 231 233 233
62 35 17 353 318 303 298 289 289 287 288 284 284 282 281 277 266 269 270 266 271 260 260 250 255 266 260 255 256 252 247 247 231 227 224 226 231 232
68 62 50 36 18 355 337 326 317 307 300 293 290 289 281 298 281 281 263 259 260 264 258 257 261 269 261 257 257 251 246 240 236 239 224 229 230 231
57 55 54 51 41 25 359 342 328 321 317 320 314 310 303 277 296 290 263 270 260 253 259 253 263 262 260 260 259 252 246 240 241 238 235 227 229 231
52 50 47 46 45 41 29 16 5 354 343 330 324 324 309 304 293 281 284 297 266 270 261 265 261 260 263 261 262 252 248 243 240 245 236 232 230 231
37 34 30 28 26 26 25 23 17 9 1 353 343 332 317 311 307 293 285 286 272 265 262 258 260 268 269 268 266 255 248 248 245 243 240 239 228 232
29 23 20 17 14 12 8 12 13 5 1 359 353 340 333 322 310 306 308 291 284 274 262 266 259 270 273 278 262 253 249 247 245 244 247 230 226 230
25 19 13 11 7 2 357 356 358 356 358 355 348 340 335 324 316 314 307 304 295 289 280 269 260 259 268 265 254 249 250 244 243 242 240 228 230 235
15 11 10 9 6 2 356 353 350 350 346 340 340 336 335 332 330 330 319 318 313 310 285 284 261 256 249 255 253 249 247 242 239 239 239 233 231 237
12 9 8 6 2 356 353 354 351 342 339 340 340 342 341 338 332 336 332 320 310 297 295 297 288 276 260 260 251 249 247 246 243 240 240 234 234 236
13 9 4 359 356 353 351 348 340 336 340 342 344 350 349 342 336 335 331 323 310 300 303 300 295 283 282 271 260 239 240 242 240 241 238 236 236 240
10 3 358 355 352 353 359 354 350 352 351 349 350 352 352 349 338 330 326 326 326 312 301 297 294 287 277 270 267 257 256 230 234 236 236 237 237 238
6 358 353 355 357 355 355 357 358 360 2 358 356 349 345 348 349 347 338 332 328 322 325 318 309 297 280 272 268 264 257 256 251 234 235 232 232 232
1 353 352 355 356 356 356 354 355 355 354 357 355 349 350 350 350 348 345 339 338 335 332 329 325 320 309 286 272 264 258 252 250 250 234 230 226 225
354 358 359 359 359 357 355 352 351 350 349 347 350 352 352 351 350 347 348 348 343 343 339 333 327 322 305 298 296 270 255 242 237 234 230 221 211 209
3 2 1 359 356 354 351 347 345 343 340 342 347 352 348 345 352 350 348 351 351 345 344 341 337 333 324 298 306 287 268 233 220 210 210 206 199 191
4 3 358 356 354 350 348 344 340 340 341 340 340 347 350 347 346 352 350 346 349 349 345 344 345 339 320 302 57 63 274 211 198 190 183 181 175 164
358 358 358 355 353 352 349 345 343 340 341 339 330 338 343 348 349 347 345 346 343 348 355 358 344 340 346 143 118 118 130 178 187 181 174 163 152 150
351 352 351 351 348 348 349 347 343 342 340 341 333 330 337 343 340 341 344 338 340 343 341 349 344 328 300 181 126 118 121 141 157 160 158 164 155 153
343 346 342 342 343 338 343 344 341 340 339 338 336 330 332 335 338 340 341 339 333 340 335 350 360 11 85 117 125 120 123 133 141 152 139 145 163 148
Wind_Speed_850mb
81 88 77 53 53 54 60 66 69 56 67 67 66 58 59 58 60 69 73 69 67 59 58 60 65 69 74 76 82 91 91 96 88 88 81 75 73 78
36 35 84 67 48 51 52 53 62 72 73 64 68 70 68 67 55 64 67 75 68 67 62 59 58 64 73 80 81 93 96 112 93 87 86 79 75 75
21 20 13 28 27 27 30 33 46 59 66 68 57 80 76 75 62 70 69 71 73 74 70 65 65 63 70 76 81 85 93 112 95 93 89 85 81 74
27 25 10 9 9 20 35 44 45 37 42 37 55 67 78 77 62 71 84 85 78 80 78 75 69 66 68 71 77 83 86 96 97 100 97 89 88 81
32 23 21 16 16 19 23 32 37 43 44 46 39 38 55 59 64 66 76 81 79 78 79 81 76 76 74 75 77 84 90 90 100 107 103 98 92 89
42 36 31 27 22 20 21 24 25 32 43 50 53 49 52 56 74 64 82 73 85 83 82 84 85 81 82 86 82 84 90 93 109 106 106 103 95 95
47 47 46 40 34 30 27 28 31 32 33 37 37 31 36 49 32 34 69 76 93 73 84 96 92 85 89 91 91 92 92 97 111 119 121 108 104 99
53 48 44 41 39 38 33 33 36 41 37 38 41 40 40 44 52 54 49 43 55 71 85 97 92 91 89 94 91 96 94 99 105 107 123 120 114 110
54 54 51 48 44 41 37 33 33 36 38 37 37 38 44 45 52 55 55 61 67 56 69 86 89 94 92 86 89 92 94 94 96 107 112 125 124 118
60 56 54 54 56 52 47 42 38 38 39 40 40 41 40 46 49 53 56 65 74 73 74 82 92 111 102 96 92 92 90 92 96 95 101 113 125 121
54 55 56 56 55 55 57 56 52 45 41 39 35 34 36 38 44 47 50 53 60 65 50 65 85 105 116 104 91 87 83 79 78 82 88 114 119 115
51 52 55 59 59 61 60 59 60 60 58 53 41 36 38 37 38 40 44 52 50 50 17 37 70 66 97 105 93 90 86 83 79 74 82 98 110 119
52 55 55 56 57 57 56 57 57 58 55 53 52 52 50 50 47 40 41 40 51 56 44 51 57 54 68 46 69 91 92 87 87 87 93 99 106 106
49 50 51 53 52 50 47 45 45 47 51 55 57 57 58 59 60 54 44 41 42 51 55 46 59 58 57 73 68 64 84 91 95 98 101 101 104 109
48 47 46 45 42 39 40 40 42 45 47 49 55 56 56 55 55 55 50 44 38 36 46 49 52 56 59 70 67 76 63 88 95 98 98 100 106 111
43 43 42 41 43 43 42 44 41 40 44 45 46 50 52 54 56 56 55 54 51 41 35 40 41 45 49 54 61 68 74 59 66 85 91 91 87 87
51 48 48 48 46 45 44 44 47 47 48 48 47 47 50 52 55 56 56 54 48 52 52 43 36 36 36 40 44 49 54 60 69 68 75 72 70 68
51 53 56 58 58 58 57 54 52 49 45 42 43 44 45 48 51 52 52 51 48 47 48 48 48 43 34 28 22 28 35 42 47 51 53 56 55 51
51 52 53 55 56 56 54 51 52 49 45 40 39 44 44 43 43 48 50 52 49 42 40 43 42 39 34 25 10 10 16 25 32 36 42 49 48 39
58 59 56 54 54 53 52 49 50 50 47 41 35 36 38 40 40 45 47 48 46 43 41 40 41 30 23 18 6 12 5 18 29 38 40 40 38 36
57 59 60 56 55 51 51 48 47 47 46 42 30 33 35 39 38 39 45 45 41 40 40 35 36 27 6 9 19 20 19 15 24 35 39 47 52 46
52 54 58 56 58 54 52 50 46 46 44 41 32 30 33 35 37 40 46 49 44 38 32 28 30 18 11 8 20 26 26 25 29 38 41 43 48 34
51 56 57 54 61 54 56 54 47 45 44 39 33 30 33 34 34 35 40 44 37 37 25 22 23 12 9 13 17 21 24 26 26 26 26 24 15 22
Wind_Direction_850mb
246 240 233 235 245 250 252 251 251 257 266 264 255 267 257 258 260 265 260 259 251 253 253 249 249 249 248 247 245 243 243 232 226 229 230 233 239 236
232 226 212 214 227 246 262 268 265 261 255 260 263 277 267 262 264 268 263 258 253 252 251 253 253 255 252 250 246 244 244 240 224 227 230 231 236 237
320 5 62 171 202 249 248 254 261 270 263 253 263 268 257 258 263 276 271 259 261 254 254 254 256 264 257 251 248 245 244 244 217 223 228 229 232 234
198 217 314 344 310 266 269 265 275 279 278 282 278 271 258 271 260 281 281 264 262 263 257 252 259 265 258 252 252 250 246 249 222 223 225 231 233 233
62 35 17 353 318 303 298 289 289 287 288 284 284 282 281 277 266 269 270 266 271 260 260 250 255 266 260 255 256 252 247 247 231 227 224 226 231 232
68 62 50 36 18 355 337 326 317 307 300 293 290 289 281 298 281 281 263 259 260 264 258 257 261 269 261 257 257 251 246 240 236 239 224 229 230 231
57 55 54 51 41 25 359 342 328 321 317 320 314 310 303 277 296 290 263 270 260 253 259 253 263 262 260 260 259 252 246 240 241 238 235 227 229 231
52 50 47 46 45 41 29 16 5 354 343 330 324 324 309 304 293 281 284 297 266 270 261 265 261 260 263 261 262 252 248 243 240 245 236 232 230 231
37 34 30 28 26 26 25 23 17 9 1 353 343 332 317 311 307 293 285 286 272 265 262 258 260 268 269 268 266 255 248 248 245 243 240 239 228 232
29 23 20 17 14 12 8 12 13 5 1 359 353 340 333 322 310 306 308 291 284 274 262 266 259 270 273 278 262 253 249 247 245 244 247 230 226 230
25 19 13 11 7 2 357 356 358 356 358 355 348 340 335 324 316 314 307 304 295 289 280 269 260 259 268 265 254 249 250 244 243 242 240 228 230 235
15 11 10 9 6 2 356 353 350 350 346 340 340 336 335 332 330 330 319 318 313 310 285 284 261 256 249 255 253 249 247 242 239 239 239 233 231 237
12 9 8 6 2 356 353 354 351 342 339 340 340 342 341 338 332 336 332 320 310 297 295 297 288 276 260 260 251 249 247 246 243 240 240 234 234 236
13 9 4 359 356 353 351 348 340 336 340 342 344 350 349 342 336 335 331 323 310 300 303 300 295 283 282 271 260 239 240 242 240 241 238 236 236 240
10 3 358 355 352 353 359 354 350 352 351 349 350 352 352 349 338 330 326 326 326 312 301 297 294 287 277 270 267 257 256 230 234 236 236 237 237 238
6 358 353 355 357 355 355 357 358 360 2 358 356 349 345 348 349 347 338 332 328 322 325 318 309 297 280 272 268 264 257 256 251 234 235 232 232 232
1 353 352 355 356 356 356 354 355 355 354 357 355 349 350 350 350 348 345 339 338 335 332 329 325 320 309 286 272 264 258 252 250 250 234 230 226 225
354 358 359 359 359 357 355 352 351 350 349 347 350 352 352 351 350 347 348 348 343 343 339 333 327 322 305 298 296 270 255 242 237 234 230 221 211 209
3 2 1 359 356 354 351 347 345 343 340 342 347 352 348 345 352 350 348 351 351 345 344 341 337 333 324 298 306 287 268 233 220 210 210 206 199 191
4 3 358 356 354 350 348 344 340 340 341 340 340 347 350 347 346 352 350 346 349 349 345 344 345 339 320 302 57 63 274 211 198 190 183 181 175 164
358 358 358 355 353 352 349 345 343 340 341 339 330 338 343 348 349 347 345 346 343 348 355 358 344 340 346 143 118 118 130 178 187 181 174 163 152 150
351 352 351 351 348 348 349 347 343 342 340 341 333 330 337 343 340 341 344 338 340 343 341 349 344 328 300 181 126 118 121 141 157 160 158 164 155 153
343 346 342 342 343 338 343 344 341 340 339 338 336 330 332 335 338 340 341 339 333 340 335 350 360 11 85 117 125 120 123 133 141 152 139 145 163 148